<?xml version="1.0" encoding="UTF-8" standalone="no" ?>
<gpx xmlns="http://www.topografix.com/GPX/1/1" xmlns:xsi="http://www.w3.org/2001/XMLSchema-instance" xsi:schemaLocation="http://www.topografix.com/GPX/1/1 http://www.topografix.com/GPX/1/1/gpx.xsd" version="1.1" creator="VisuGPX - https://www.visugpx.com">
  <metadata>
    <name>AVF - 28 janvier - La Motte - La Darboussière</name>
    <desc><![CDATA[La Motte - La Darboussière]]></desc>
  </metadata>
  <trk>
    <name><![CDATA[ttt]]></name>
    <desc><![CDATA[<h1>OruxMaps</h1><br /><hr align="center" width="480" style="height: 2px; width: 517px"/><h2>Nom: ttt</h2><br /><p>Temps de départ: 01/28/2014 14:03</p><p>Temps d'arrivée: 01/28/2014 16:09</p><p>Distance: 3,5 km (01:19)</p><p>Temps déplacement: 01:06</p><p>Vitesse moyenne: 2,7 km/h</p><p>Vitesse moyenne: 3,2 km/h</p><p>Vitess Max.: 8,6 km/h</p><p>Altitude minimale: 121 m</p><p>Altitude maximale: 223 m</p><p>Vitesse d'élévation: 270,8 m/h</p><p>Vitesse de descente: -223,7 m/h</p><p>Gain Altitude: 46 m</p><p>Perte Altitude: -64 m</p><p>Temps d'élévation: 00:10</p><p>Temps de descente: 00:17</p><hr align="center" width="480" style="height: 2px; width: 517px"/>]]></desc>
    <trkseg>
      <trkpt lat="43.50204" lon="6.51273">
        <ele>155.93</ele>
        <time>2014-01-28T13:03:21Z</time>
      </trkpt>
      <trkpt lat="43.50224" lon="6.51278">
        <ele>141.76</ele>
        <time>2014-01-28T13:03:46Z</time>
      </trkpt>
      <trkpt lat="43.50221" lon="6.51303">
        <ele>146.88</ele>
        <time>2014-01-28T13:04:48Z</time>
      </trkpt>
      <trkpt lat="43.50207" lon="6.51321">
        <ele>147</ele>
        <time>2014-01-28T13:05:06Z</time>
      </trkpt>
      <trkpt lat="43.50187" lon="6.51334">
        <ele>148.06</ele>
        <time>2014-01-28T13:05:30Z</time>
      </trkpt>
      <trkpt lat="43.50171" lon="6.5135">
        <ele>148.77</ele>
        <time>2014-01-28T13:05:42Z</time>
      </trkpt>
      <trkpt lat="43.50157" lon="6.51368">
        <ele>151.45</ele>
        <time>2014-01-28T13:06:02Z</time>
      </trkpt>
      <trkpt lat="43.50155" lon="6.51367">
        <ele>152.03</ele>
        <time>2014-01-28T13:06:26Z</time>
      </trkpt>
      <trkpt lat="43.50142" lon="6.51387">
        <ele>152.82</ele>
        <time>2014-01-28T13:06:44Z</time>
      </trkpt>
      <trkpt lat="43.50123" lon="6.51383">
        <ele>154.12</ele>
        <time>2014-01-28T13:07:32Z</time>
      </trkpt>
      <trkpt lat="43.50105" lon="6.51392">
        <ele>149.14</ele>
        <time>2014-01-28T13:08:16Z</time>
      </trkpt>
      <trkpt lat="43.50094" lon="6.51368">
        <ele>148.49</ele>
        <time>2014-01-28T13:08:24Z</time>
      </trkpt>
      <trkpt lat="43.50079" lon="6.51354">
        <ele>151.97</ele>
        <time>2014-01-28T13:08:44Z</time>
      </trkpt>
      <trkpt lat="43.50062" lon="6.51346">
        <ele>153.87</ele>
        <time>2014-01-28T13:09:02Z</time>
      </trkpt>
      <trkpt lat="43.50062" lon="6.51346">
        <ele>153.87</ele>
        <time>2014-01-28T13:09:02Z</time>
      </trkpt>
      <trkpt lat="43.50044" lon="6.5134">
        <ele>156.64</ele>
        <time>2014-01-28T13:09:24Z</time>
      </trkpt>
      <trkpt lat="43.50025" lon="6.51338">
        <ele>160.3</ele>
        <time>2014-01-28T13:09:48Z</time>
      </trkpt>
      <trkpt lat="43.50007" lon="6.51335">
        <ele>163.17</ele>
        <time>2014-01-28T13:10:08Z</time>
      </trkpt>
      <trkpt lat="43.49988" lon="6.51329">
        <ele>164.48</ele>
        <time>2014-01-28T13:10:28Z</time>
      </trkpt>
      <trkpt lat="43.49974" lon="6.51312">
        <ele>165.61</ele>
        <time>2014-01-28T13:10:48Z</time>
      </trkpt>
      <trkpt lat="43.49963" lon="6.51289">
        <ele>167.41</ele>
        <time>2014-01-28T13:11:08Z</time>
      </trkpt>
      <trkpt lat="43.49948" lon="6.51272">
        <ele>171.03</ele>
        <time>2014-01-28T13:11:28Z</time>
      </trkpt>
      <trkpt lat="43.4993" lon="6.51264">
        <ele>175.1</ele>
        <time>2014-01-28T13:11:46Z</time>
      </trkpt>
      <trkpt lat="43.49913" lon="6.51273">
        <ele>178.26</ele>
        <time>2014-01-28T13:12:12Z</time>
      </trkpt>
      <trkpt lat="43.49913" lon="6.51273">
        <ele>178.26</ele>
        <time>2014-01-28T13:12:12Z</time>
      </trkpt>
      <trkpt lat="43.49898" lon="6.51288">
        <ele>181.01</ele>
        <time>2014-01-28T13:12:30Z</time>
      </trkpt>
      <trkpt lat="43.49885" lon="6.51307">
        <ele>183.26</ele>
        <time>2014-01-28T13:12:51Z</time>
      </trkpt>
      <trkpt lat="43.49884" lon="6.51306">
        <ele>183.77</ele>
        <time>2014-01-28T13:13:27Z</time>
      </trkpt>
      <trkpt lat="43.49884" lon="6.51306">
        <ele>183.75</ele>
        <time>2014-01-28T13:14:11Z</time>
      </trkpt>
      <trkpt lat="43.49869" lon="6.51291">
        <ele>183.12</ele>
        <time>2014-01-28T13:15:11Z</time>
      </trkpt>
      <trkpt lat="43.49869" lon="6.51291">
        <ele>183.12</ele>
        <time>2014-01-28T13:15:11Z</time>
      </trkpt>
      <trkpt lat="43.49853" lon="6.51274">
        <ele>181.59</ele>
        <time>2014-01-28T13:15:49Z</time>
      </trkpt>
      <trkpt lat="43.49851" lon="6.51249">
        <ele>177.8</ele>
        <time>2014-01-28T13:16:27Z</time>
      </trkpt>
      <trkpt lat="43.49833" lon="6.51239">
        <ele>173.02</ele>
        <time>2014-01-28T13:17:03Z</time>
      </trkpt>
      <trkpt lat="43.49816" lon="6.51231">
        <ele>167.14</ele>
        <time>2014-01-28T13:17:57Z</time>
      </trkpt>
      <trkpt lat="43.49816" lon="6.51231">
        <ele>167.14</ele>
        <time>2014-01-28T13:17:57Z</time>
      </trkpt>
      <trkpt lat="43.49802" lon="6.51214">
        <ele>162.57</ele>
        <time>2014-01-28T13:18:35Z</time>
      </trkpt>
      <trkpt lat="43.49794" lon="6.51191">
        <ele>157.29</ele>
        <time>2014-01-28T13:19:27Z</time>
      </trkpt>
      <trkpt lat="43.49783" lon="6.51172">
        <ele>152.39</ele>
        <time>2014-01-28T13:20:17Z</time>
      </trkpt>
      <trkpt lat="43.4977" lon="6.51155">
        <ele>145.4</ele>
        <time>2014-01-28T13:21:03Z</time>
      </trkpt>
      <trkpt lat="43.4977" lon="6.51155">
        <ele>145.4</ele>
        <time>2014-01-28T13:21:03Z</time>
      </trkpt>
      <trkpt lat="43.49763" lon="6.51131">
        <ele>131.14</ele>
        <time>2014-01-28T13:22:49Z</time>
      </trkpt>
      <trkpt lat="43.49744" lon="6.51131">
        <ele>126.61</ele>
        <time>2014-01-28T13:23:13Z</time>
      </trkpt>
      <trkpt lat="43.49723" lon="6.5113">
        <ele>121.8</ele>
        <time>2014-01-28T13:24:13Z</time>
      </trkpt>
      <trkpt lat="43.49701" lon="6.51103">
        <ele>122</ele>
        <time>2014-01-28T13:24:16Z</time>
      </trkpt>
      <trkpt lat="43.49683" lon="6.51098">
        <ele>122.57</ele>
        <time>2014-01-28T13:24:40Z</time>
      </trkpt>
      <trkpt lat="43.49663" lon="6.51094">
        <ele>123.3</ele>
        <time>2014-01-28T13:24:58Z</time>
      </trkpt>
      <trkpt lat="43.49644" lon="6.51099">
        <ele>123.66</ele>
        <time>2014-01-28T13:26:30Z</time>
      </trkpt>
      <trkpt lat="43.49645" lon="6.51102">
        <ele>124.53</ele>
        <time>2014-01-28T13:27:10Z</time>
      </trkpt>
      <trkpt lat="43.49645" lon="6.51102">
        <ele>124.53</ele>
        <time>2014-01-28T13:27:10Z</time>
      </trkpt>
      <trkpt lat="43.49648" lon="6.51105">
        <ele>123.86</ele>
        <time>2014-01-28T13:27:38Z</time>
      </trkpt>
      <trkpt lat="43.49625" lon="6.51097">
        <ele>127.48</ele>
        <time>2014-01-28T13:28:40Z</time>
      </trkpt>
      <trkpt lat="43.49569" lon="6.51109">
        <ele>129.04</ele>
        <time>2014-01-28T13:29:48Z</time>
      </trkpt>
      <trkpt lat="43.4955" lon="6.51103">
        <ele>130.63</ele>
        <time>2014-01-28T13:29:57Z</time>
      </trkpt>
      <trkpt lat="43.49534" lon="6.51117">
        <ele>133.74</ele>
        <time>2014-01-28T13:30:19Z</time>
      </trkpt>
      <trkpt lat="43.49534" lon="6.51117">
        <ele>133.74</ele>
        <time>2014-01-28T13:30:19Z</time>
      </trkpt>
      <trkpt lat="43.49518" lon="6.51129">
        <ele>137.6</ele>
        <time>2014-01-28T13:30:45Z</time>
      </trkpt>
      <trkpt lat="43.49503" lon="6.51144">
        <ele>141.03</ele>
        <time>2014-01-28T13:31:13Z</time>
      </trkpt>
      <trkpt lat="43.49484" lon="6.51153">
        <ele>142.47</ele>
        <time>2014-01-28T13:31:37Z</time>
      </trkpt>
      <trkpt lat="43.49466" lon="6.51161">
        <ele>143.87</ele>
        <time>2014-01-28T13:31:55Z</time>
      </trkpt>
      <trkpt lat="43.4945" lon="6.51176">
        <ele>145.72</ele>
        <time>2014-01-28T13:32:19Z</time>
      </trkpt>
      <trkpt lat="43.49436" lon="6.51192">
        <ele>147.4</ele>
        <time>2014-01-28T13:32:43Z</time>
      </trkpt>
      <trkpt lat="43.4942" lon="6.51206">
        <ele>149.1</ele>
        <time>2014-01-28T13:33:03Z</time>
      </trkpt>
      <trkpt lat="43.4942" lon="6.51206">
        <ele>149.1</ele>
        <time>2014-01-28T13:33:03Z</time>
      </trkpt>
      <trkpt lat="43.49413" lon="6.51214">
        <ele>150.76</ele>
        <time>2014-01-28T13:33:41Z</time>
      </trkpt>
      <trkpt lat="43.49416" lon="6.51216">
        <ele>150.09</ele>
        <time>2014-01-28T13:35:23Z</time>
      </trkpt>
      <trkpt lat="43.494" lon="6.51229">
        <ele>150.77</ele>
        <time>2014-01-28T13:35:45Z</time>
      </trkpt>
      <trkpt lat="43.49389" lon="6.5125">
        <ele>152.45</ele>
        <time>2014-01-28T13:36:15Z</time>
      </trkpt>
      <trkpt lat="43.49389" lon="6.5125">
        <ele>152.45</ele>
        <time>2014-01-28T13:36:15Z</time>
      </trkpt>
      <trkpt lat="43.49408" lon="6.51258">
        <ele>153.77</ele>
        <time>2014-01-28T13:36:39Z</time>
      </trkpt>
      <trkpt lat="43.49426" lon="6.51256">
        <ele>154.47</ele>
        <time>2014-01-28T13:37:09Z</time>
      </trkpt>
      <trkpt lat="43.49443" lon="6.51249">
        <ele>154.2</ele>
        <time>2014-01-28T13:37:31Z</time>
      </trkpt>
      <trkpt lat="43.4944" lon="6.51273">
        <ele>158.68</ele>
        <time>2014-01-28T13:38:11Z</time>
      </trkpt>
      <trkpt lat="43.49427" lon="6.51292">
        <ele>163.65</ele>
        <time>2014-01-28T13:38:39Z</time>
      </trkpt>
      <trkpt lat="43.49427" lon="6.51292">
        <ele>163.65</ele>
        <time>2014-01-28T13:38:39Z</time>
      </trkpt>
      <trkpt lat="43.49419" lon="6.51298">
        <ele>167.54</ele>
        <time>2014-01-28T13:39:44Z</time>
      </trkpt>
      <trkpt lat="43.49421" lon="6.51296">
        <ele>168.9</ele>
        <time>2014-01-28T13:41:46Z</time>
      </trkpt>
      <trkpt lat="43.49421" lon="6.51296">
        <ele>168.9</ele>
        <time>2014-01-28T13:41:46Z</time>
      </trkpt>
      <trkpt lat="43.49409" lon="6.51316">
        <ele>170.51</ele>
        <time>2014-01-28T13:42:34Z</time>
      </trkpt>
      <trkpt lat="43.49416" lon="6.51339">
        <ele>172.45</ele>
        <time>2014-01-28T13:43:02Z</time>
      </trkpt>
      <trkpt lat="43.49427" lon="6.5136">
        <ele>174.07</ele>
        <time>2014-01-28T13:43:48Z</time>
      </trkpt>
      <trkpt lat="43.49433" lon="6.51359">
        <ele>175.21</ele>
        <time>2014-01-28T13:44:53Z</time>
      </trkpt>
      <trkpt lat="43.49433" lon="6.51359">
        <ele>175.21</ele>
        <time>2014-01-28T13:44:53Z</time>
      </trkpt>
      <trkpt lat="43.49451" lon="6.51364">
        <ele>177.18</ele>
        <time>2014-01-28T13:45:21Z</time>
      </trkpt>
      <trkpt lat="43.4947" lon="6.51361">
        <ele>179.66</ele>
        <time>2014-01-28T13:45:47Z</time>
      </trkpt>
      <trkpt lat="43.49482" lon="6.51364">
        <ele>182.39</ele>
        <time>2014-01-28T13:47:07Z</time>
      </trkpt>
      <trkpt lat="43.49499" lon="6.51351">
        <ele>184.14</ele>
        <time>2014-01-28T13:47:35Z</time>
      </trkpt>
      <trkpt lat="43.49518" lon="6.51354">
        <ele>185.87</ele>
        <time>2014-01-28T13:48:05Z</time>
      </trkpt>
      <trkpt lat="43.49518" lon="6.51354">
        <ele>185.87</ele>
        <time>2014-01-28T13:48:05Z</time>
      </trkpt>
      <trkpt lat="43.49528" lon="6.51356">
        <ele>186.66</ele>
        <time>2014-01-28T13:48:29Z</time>
      </trkpt>
      <trkpt lat="43.49546" lon="6.51366">
        <ele>186.89</ele>
        <time>2014-01-28T13:48:59Z</time>
      </trkpt>
      <trkpt lat="43.49564" lon="6.51375">
        <ele>186.3</ele>
        <time>2014-01-28T13:49:25Z</time>
      </trkpt>
      <trkpt lat="43.49581" lon="6.51384">
        <ele>186.69</ele>
        <time>2014-01-28T13:49:53Z</time>
      </trkpt>
      <trkpt lat="43.49596" lon="6.51399">
        <ele>189.27</ele>
        <time>2014-01-28T13:50:21Z</time>
      </trkpt>
      <trkpt lat="43.49611" lon="6.51414">
        <ele>191.45</ele>
        <time>2014-01-28T13:50:55Z</time>
      </trkpt>
      <trkpt lat="43.49629" lon="6.51422">
        <ele>192.28</ele>
        <time>2014-01-28T13:51:17Z</time>
      </trkpt>
      <trkpt lat="43.49629" lon="6.51422">
        <ele>192.28</ele>
        <time>2014-01-28T13:51:17Z</time>
      </trkpt>
      <trkpt lat="43.49647" lon="6.51427">
        <ele>192.51</ele>
        <time>2014-01-28T13:51:39Z</time>
      </trkpt>
      <trkpt lat="43.49661" lon="6.51444">
        <ele>192.67</ele>
        <time>2014-01-28T13:52:07Z</time>
      </trkpt>
      <trkpt lat="43.49679" lon="6.51451">
        <ele>193.29</ele>
        <time>2014-01-28T13:52:37Z</time>
      </trkpt>
      <trkpt lat="43.49695" lon="6.51463">
        <ele>191.96</ele>
        <time>2014-01-28T13:52:59Z</time>
      </trkpt>
      <trkpt lat="43.49711" lon="6.51478">
        <ele>190.04</ele>
        <time>2014-01-28T13:53:25Z</time>
      </trkpt>
      <trkpt lat="43.49728" lon="6.51489">
        <ele>189.16</ele>
        <time>2014-01-28T13:53:51Z</time>
      </trkpt>
      <trkpt lat="43.49744" lon="6.51504">
        <ele>187.37</ele>
        <time>2014-01-28T13:54:17Z</time>
      </trkpt>
      <trkpt lat="43.49744" lon="6.51504">
        <ele>187.37</ele>
        <time>2014-01-28T13:54:17Z</time>
      </trkpt>
      <trkpt lat="43.49761" lon="6.51511">
        <ele>185.49</ele>
        <time>2014-01-28T13:54:47Z</time>
      </trkpt>
      <trkpt lat="43.49781" lon="6.51512">
        <ele>184.36</ele>
        <time>2014-01-28T13:55:15Z</time>
      </trkpt>
      <trkpt lat="43.49799" lon="6.51511">
        <ele>183.58</ele>
        <time>2014-01-28T13:55:39Z</time>
      </trkpt>
      <trkpt lat="43.49817" lon="6.51518">
        <ele>183.11</ele>
        <time>2014-01-28T13:56:09Z</time>
      </trkpt>
      <trkpt lat="43.49835" lon="6.51514">
        <ele>184.28</ele>
        <time>2014-01-28T13:56:37Z</time>
      </trkpt>
      <trkpt lat="43.49835" lon="6.51514">
        <ele>184.28</ele>
        <time>2014-01-28T13:56:37Z</time>
      </trkpt>
      <trkpt lat="43.49854" lon="6.51515">
        <ele>186.43</ele>
        <time>2014-01-28T13:57:31Z</time>
      </trkpt>
      <trkpt lat="43.49871" lon="6.51506">
        <ele>188.29</ele>
        <time>2014-01-28T13:57:53Z</time>
      </trkpt>
      <trkpt lat="43.4989" lon="6.51506">
        <ele>191.65</ele>
        <time>2014-01-28T13:58:37Z</time>
      </trkpt>
      <trkpt lat="43.49894" lon="6.51481">
        <ele>194.94</ele>
        <time>2014-01-28T13:59:11Z</time>
      </trkpt>
      <trkpt lat="43.49901" lon="6.51506">
        <ele>194.21</ele>
        <time>2014-01-28T13:59:59Z</time>
      </trkpt>
      <trkpt lat="43.49901" lon="6.51506">
        <ele>194.21</ele>
        <time>2014-01-28T13:59:59Z</time>
      </trkpt>
      <trkpt lat="43.49905" lon="6.5153">
        <ele>196</ele>
        <time>2014-01-28T14:00:25Z</time>
      </trkpt>
      <trkpt lat="43.49923" lon="6.51517">
        <ele>199.57</ele>
        <time>2014-01-28T14:00:53Z</time>
      </trkpt>
      <trkpt lat="43.49906" lon="6.51526">
        <ele>200.61</ele>
        <time>2014-01-28T14:01:22Z</time>
      </trkpt>
      <trkpt lat="43.49901" lon="6.51521">
        <ele>198.83</ele>
        <time>2014-01-28T14:02:32Z</time>
      </trkpt>
      <trkpt lat="43.49901" lon="6.51522">
        <ele>199.54</ele>
        <time>2014-01-28T14:03:05Z</time>
      </trkpt>
      <trkpt lat="43.49901" lon="6.51522">
        <ele>199.54</ele>
        <time>2014-01-28T14:03:05Z</time>
      </trkpt>
      <trkpt lat="43.49898" lon="6.51524">
        <ele>199.22</ele>
        <time>2014-01-28T14:03:39Z</time>
      </trkpt>
      <trkpt lat="43.49901" lon="6.51519">
        <ele>199.89</ele>
        <time>2014-01-28T14:04:45Z</time>
      </trkpt>
      <trkpt lat="43.49899" lon="6.51523">
        <ele>199.18</ele>
        <time>2014-01-28T14:05:19Z</time>
      </trkpt>
      <trkpt lat="43.49898" lon="6.51522">
        <ele>199.04</ele>
        <time>2014-01-28T14:05:43Z</time>
      </trkpt>
      <trkpt lat="43.49902" lon="6.51524">
        <ele>199.31</ele>
        <time>2014-01-28T14:06:17Z</time>
      </trkpt>
      <trkpt lat="43.49902" lon="6.51524">
        <ele>199.31</ele>
        <time>2014-01-28T14:06:17Z</time>
      </trkpt>
      <trkpt lat="43.49903" lon="6.51526">
        <ele>199.87</ele>
        <time>2014-01-28T14:06:45Z</time>
      </trkpt>
      <trkpt lat="43.4992" lon="6.51538">
        <ele>200.73</ele>
        <time>2014-01-28T14:07:12Z</time>
      </trkpt>
      <trkpt lat="43.49938" lon="6.51538">
        <ele>199.98</ele>
        <time>2014-01-28T14:07:34Z</time>
      </trkpt>
      <trkpt lat="43.49956" lon="6.51532">
        <ele>198.99</ele>
        <time>2014-01-28T14:07:54Z</time>
      </trkpt>
      <trkpt lat="43.49972" lon="6.51517">
        <ele>198.91</ele>
        <time>2014-01-28T14:08:12Z</time>
      </trkpt>
      <trkpt lat="43.49987" lon="6.51502">
        <ele>199.06</ele>
        <time>2014-01-28T14:08:30Z</time>
      </trkpt>
      <trkpt lat="43.50005" lon="6.51496">
        <ele>198.55</ele>
        <time>2014-01-28T14:08:56Z</time>
      </trkpt>
      <trkpt lat="43.50005" lon="6.51496">
        <ele>198.55</ele>
        <time>2014-01-28T14:08:56Z</time>
      </trkpt>
      <trkpt lat="43.50022" lon="6.51495">
        <ele>197.29</ele>
        <time>2014-01-28T14:09:24Z</time>
      </trkpt>
      <trkpt lat="43.50041" lon="6.51498">
        <ele>195.66</ele>
        <time>2014-01-28T14:09:50Z</time>
      </trkpt>
      <trkpt lat="43.50058" lon="6.51508">
        <ele>193.06</ele>
        <time>2014-01-28T14:10:12Z</time>
      </trkpt>
      <trkpt lat="43.50077" lon="6.5151">
        <ele>192.08</ele>
        <time>2014-01-28T14:10:28Z</time>
      </trkpt>
      <trkpt lat="43.50096" lon="6.51517">
        <ele>191.5</ele>
        <time>2014-01-28T14:10:44Z</time>
      </trkpt>
      <trkpt lat="43.50115" lon="6.51522">
        <ele>190.6</ele>
        <time>2014-01-28T14:11:08Z</time>
      </trkpt>
      <trkpt lat="43.50133" lon="6.5152">
        <ele>189.81</ele>
        <time>2014-01-28T14:11:26Z</time>
      </trkpt>
      <trkpt lat="43.50153" lon="6.5152">
        <ele>189.3</ele>
        <time>2014-01-28T14:11:48Z</time>
      </trkpt>
      <trkpt lat="43.50171" lon="6.51526">
        <ele>189.18</ele>
        <time>2014-01-28T14:12:10Z</time>
      </trkpt>
      <trkpt lat="43.50171" lon="6.51526">
        <ele>189.18</ele>
        <time>2014-01-28T14:12:10Z</time>
      </trkpt>
      <trkpt lat="43.50186" lon="6.51539">
        <ele>190.06</ele>
        <time>2014-01-28T14:12:34Z</time>
      </trkpt>
      <trkpt lat="43.502" lon="6.51556">
        <ele>189.24</ele>
        <time>2014-01-28T14:13:00Z</time>
      </trkpt>
      <trkpt lat="43.50215" lon="6.51573">
        <ele>187.11</ele>
        <time>2014-01-28T14:13:26Z</time>
      </trkpt>
      <trkpt lat="43.50232" lon="6.51584">
        <ele>184.76</ele>
        <time>2014-01-28T14:13:48Z</time>
      </trkpt>
      <trkpt lat="43.50247" lon="6.51602">
        <ele>182.1</ele>
        <time>2014-01-28T14:14:14Z</time>
      </trkpt>
      <trkpt lat="43.50253" lon="6.51626">
        <ele>180.66</ele>
        <time>2014-01-28T14:14:34Z</time>
      </trkpt>
      <trkpt lat="43.50268" lon="6.5164">
        <ele>179.18</ele>
        <time>2014-01-28T14:14:50Z</time>
      </trkpt>
      <trkpt lat="43.50283" lon="6.51658">
        <ele>178.42</ele>
        <time>2014-01-28T14:15:10Z</time>
      </trkpt>
      <trkpt lat="43.50283" lon="6.51658">
        <ele>178.42</ele>
        <time>2014-01-28T14:15:10Z</time>
      </trkpt>
      <trkpt lat="43.503" lon="6.51672">
        <ele>177.64</ele>
        <time>2014-01-28T14:15:30Z</time>
      </trkpt>
      <trkpt lat="43.50318" lon="6.5168">
        <ele>177.53</ele>
        <time>2014-01-28T14:15:50Z</time>
      </trkpt>
      <trkpt lat="43.50337" lon="6.51687">
        <ele>176.6</ele>
        <time>2014-01-28T14:16:12Z</time>
      </trkpt>
      <trkpt lat="43.50356" lon="6.51691">
        <ele>176.71</ele>
        <time>2014-01-28T14:16:28Z</time>
      </trkpt>
      <trkpt lat="43.50373" lon="6.517">
        <ele>177.03</ele>
        <time>2014-01-28T14:16:48Z</time>
      </trkpt>
      <trkpt lat="43.50392" lon="6.51703">
        <ele>178.68</ele>
        <time>2014-01-28T14:17:14Z</time>
      </trkpt>
      <trkpt lat="43.50408" lon="6.51715">
        <ele>175.48</ele>
        <time>2014-01-28T14:17:44Z</time>
      </trkpt>
      <trkpt lat="43.50448" lon="6.51788">
        <ele>154.48</ele>
        <time>2014-01-28T14:18:53Z</time>
      </trkpt>
      <trkpt lat="43.50474" lon="6.51806">
        <ele>152.98</ele>
        <time>2014-01-28T14:19:23Z</time>
      </trkpt>
      <trkpt lat="43.505" lon="6.51805">
        <ele>155.6</ele>
        <time>2014-01-28T14:20:02Z</time>
      </trkpt>
      <trkpt lat="43.50521" lon="6.51802">
        <ele>156</ele>
        <time>2014-01-28T14:20:12Z</time>
      </trkpt>
      <trkpt lat="43.50505" lon="6.51789">
        <ele>154.47</ele>
        <time>2014-01-28T14:20:23Z</time>
      </trkpt>
      <trkpt lat="43.50512" lon="6.51813">
        <ele>155.19</ele>
        <time>2014-01-28T14:20:39Z</time>
      </trkpt>
      <trkpt lat="43.50529" lon="6.51822">
        <ele>159.1</ele>
        <time>2014-01-28T14:20:59Z</time>
      </trkpt>
      <trkpt lat="43.50551" lon="6.51817">
        <ele>163.85</ele>
        <time>2014-01-28T14:21:41Z</time>
      </trkpt>
      <trkpt lat="43.50551" lon="6.51817">
        <ele>163.85</ele>
        <time>2014-01-28T14:21:41Z</time>
      </trkpt>
      <trkpt lat="43.50535" lon="6.51829">
        <ele>167.79</ele>
        <time>2014-01-28T14:22:25Z</time>
      </trkpt>
      <trkpt lat="43.50539" lon="6.51827">
        <ele>166.49</ele>
        <time>2014-01-28T14:22:47Z</time>
      </trkpt>
      <trkpt lat="43.50557" lon="6.51816">
        <ele>165.54</ele>
        <time>2014-01-28T14:23:25Z</time>
      </trkpt>
      <trkpt lat="43.50564" lon="6.51794">
        <ele>165.38</ele>
        <time>2014-01-28T14:23:59Z</time>
      </trkpt>
      <trkpt lat="43.50564" lon="6.51794">
        <ele>165.38</ele>
        <time>2014-01-28T14:23:59Z</time>
      </trkpt>
      <trkpt lat="43.50572" lon="6.51759">
        <ele>175.3</ele>
        <time>2014-01-28T14:26:22Z</time>
      </trkpt>
      <trkpt lat="43.50574" lon="6.51735">
        <ele>176.71</ele>
        <time>2014-01-28T14:27:48Z</time>
      </trkpt>
      <trkpt lat="43.50574" lon="6.51735">
        <ele>176.71</ele>
        <time>2014-01-28T14:27:48Z</time>
      </trkpt>
      <trkpt lat="43.50558" lon="6.51722">
        <ele>180.84</ele>
        <time>2014-01-28T14:28:42Z</time>
      </trkpt>
      <trkpt lat="43.50556" lon="6.51722">
        <ele>181.66</ele>
        <time>2014-01-28T14:28:54Z</time>
      </trkpt>
      <trkpt lat="43.50563" lon="6.51698">
        <ele>192.59</ele>
        <time>2014-01-28T14:30:12Z</time>
      </trkpt>
      <trkpt lat="43.50547" lon="6.51703">
        <ele>192.87</ele>
        <time>2014-01-28T14:30:34Z</time>
      </trkpt>
      <trkpt lat="43.50547" lon="6.51703">
        <ele>192.87</ele>
        <time>2014-01-28T14:30:34Z</time>
      </trkpt>
      <trkpt lat="43.50539" lon="6.5168">
        <ele>194.06</ele>
        <time>2014-01-28T14:31:02Z</time>
      </trkpt>
      <trkpt lat="43.50539" lon="6.51656">
        <ele>199.9</ele>
        <time>2014-01-28T14:31:44Z</time>
      </trkpt>
      <trkpt lat="43.50539" lon="6.51648">
        <ele>201.66</ele>
        <time>2014-01-28T14:32:18Z</time>
      </trkpt>
      <trkpt lat="43.50532" lon="6.51646">
        <ele>205.42</ele>
        <time>2014-01-28T14:33:07Z</time>
      </trkpt>
      <trkpt lat="43.50519" lon="6.51628">
        <ele>208.11</ele>
        <time>2014-01-28T14:33:33Z</time>
      </trkpt>
      <trkpt lat="43.50519" lon="6.51628">
        <ele>208.11</ele>
        <time>2014-01-28T14:33:33Z</time>
      </trkpt>
      <trkpt lat="43.50511" lon="6.51605">
        <ele>209.07</ele>
        <time>2014-01-28T14:34:01Z</time>
      </trkpt>
      <trkpt lat="43.50504" lon="6.51582">
        <ele>211.11</ele>
        <time>2014-01-28T14:34:21Z</time>
      </trkpt>
      <trkpt lat="43.50495" lon="6.51558">
        <ele>215.05</ele>
        <time>2014-01-28T14:34:45Z</time>
      </trkpt>
      <trkpt lat="43.505" lon="6.51533">
        <ele>215.95</ele>
        <time>2014-01-28T14:34:59Z</time>
      </trkpt>
      <trkpt lat="43.50506" lon="6.51509">
        <ele>217.26</ele>
        <time>2014-01-28T14:35:23Z</time>
      </trkpt>
      <trkpt lat="43.50511" lon="6.51506">
        <ele>219.63</ele>
        <time>2014-01-28T14:36:21Z</time>
      </trkpt>
      <trkpt lat="43.50511" lon="6.51506">
        <ele>219.63</ele>
        <time>2014-01-28T14:36:21Z</time>
      </trkpt>
      <trkpt lat="43.5053" lon="6.51509">
        <ele>220.76</ele>
        <time>2014-01-28T14:37:51Z</time>
      </trkpt>
      <trkpt lat="43.50509" lon="6.51504">
        <ele>220.8</ele>
        <time>2014-01-28T14:38:28Z</time>
      </trkpt>
      <trkpt lat="43.50508" lon="6.51505">
        <ele>220.77</ele>
        <time>2014-01-28T14:38:48Z</time>
      </trkpt>
      <trkpt lat="43.50509" lon="6.51502">
        <ele>220.82</ele>
        <time>2014-01-28T14:39:18Z</time>
      </trkpt>
      <trkpt lat="43.50506" lon="6.5151">
        <ele>220.58</ele>
        <time>2014-01-28T14:39:44Z</time>
      </trkpt>
      <trkpt lat="43.50506" lon="6.5151">
        <ele>220.58</ele>
        <time>2014-01-28T14:39:44Z</time>
      </trkpt>
      <trkpt lat="43.50515" lon="6.51504">
        <ele>220.8</ele>
        <time>2014-01-28T14:41:00Z</time>
      </trkpt>
      <trkpt lat="43.50512" lon="6.51507">
        <ele>220.88</ele>
        <time>2014-01-28T14:41:20Z</time>
      </trkpt>
      <trkpt lat="43.50514" lon="6.51504">
        <ele>221.47</ele>
        <time>2014-01-28T14:41:42Z</time>
      </trkpt>
      <trkpt lat="43.50512" lon="6.51502">
        <ele>222.44</ele>
        <time>2014-01-28T14:42:28Z</time>
      </trkpt>
      <trkpt lat="43.50512" lon="6.51502">
        <ele>222.44</ele>
        <time>2014-01-28T14:42:28Z</time>
      </trkpt>
      <trkpt lat="43.50505" lon="6.51497">
        <ele>221.29</ele>
        <time>2014-01-28T14:42:56Z</time>
      </trkpt>
      <trkpt lat="43.50489" lon="6.51482">
        <ele>220.84</ele>
        <time>2014-01-28T14:43:29Z</time>
      </trkpt>
      <trkpt lat="43.50469" lon="6.51479">
        <ele>221.17</ele>
        <time>2014-01-28T14:43:49Z</time>
      </trkpt>
      <trkpt lat="43.50451" lon="6.51479">
        <ele>220.79</ele>
        <time>2014-01-28T14:44:13Z</time>
      </trkpt>
      <trkpt lat="43.50433" lon="6.51482">
        <ele>222.14</ele>
        <time>2014-01-28T14:44:37Z</time>
      </trkpt>
      <trkpt lat="43.50415" lon="6.5149">
        <ele>223.3</ele>
        <time>2014-01-28T14:44:55Z</time>
      </trkpt>
      <trkpt lat="43.50396" lon="6.51488">
        <ele>223.07</ele>
        <time>2014-01-28T14:45:17Z</time>
      </trkpt>
      <trkpt lat="43.50378" lon="6.51487">
        <ele>222.7</ele>
        <time>2014-01-28T14:45:41Z</time>
      </trkpt>
      <trkpt lat="43.5036" lon="6.5149">
        <ele>222.38</ele>
        <time>2014-01-28T14:46:05Z</time>
      </trkpt>
      <trkpt lat="43.50341" lon="6.51488">
        <ele>219.62</ele>
        <time>2014-01-28T14:46:31Z</time>
      </trkpt>
      <trkpt lat="43.50341" lon="6.51488">
        <ele>219.62</ele>
        <time>2014-01-28T14:46:31Z</time>
      </trkpt>
      <trkpt lat="43.50341" lon="6.51494">
        <ele>218.57</ele>
        <time>2014-01-28T14:46:59Z</time>
      </trkpt>
      <trkpt lat="43.50344" lon="6.51497">
        <ele>217.23</ele>
        <time>2014-01-28T14:47:21Z</time>
      </trkpt>
      <trkpt lat="43.50324" lon="6.515">
        <ele>214.77</ele>
        <time>2014-01-28T14:47:37Z</time>
      </trkpt>
      <trkpt lat="43.50306" lon="6.515">
        <ele>212.31</ele>
        <time>2014-01-28T14:47:57Z</time>
      </trkpt>
      <trkpt lat="43.50288" lon="6.515">
        <ele>210.88</ele>
        <time>2014-01-28T14:48:11Z</time>
      </trkpt>
      <trkpt lat="43.5027" lon="6.51506">
        <ele>208.99</ele>
        <time>2014-01-28T14:48:27Z</time>
      </trkpt>
      <trkpt lat="43.50252" lon="6.5151">
        <ele>206.04</ele>
        <time>2014-01-28T14:48:47Z</time>
      </trkpt>
      <trkpt lat="43.50234" lon="6.51512">
        <ele>203.85</ele>
        <time>2014-01-28T14:49:09Z</time>
      </trkpt>
      <trkpt lat="43.50215" lon="6.51509">
        <ele>201.32</ele>
        <time>2014-01-28T14:49:37Z</time>
      </trkpt>
      <trkpt lat="43.50215" lon="6.51509">
        <ele>201.32</ele>
        <time>2014-01-28T14:49:37Z</time>
      </trkpt>
      <trkpt lat="43.50196" lon="6.5151">
        <ele>198.76</ele>
        <time>2014-01-28T14:50:01Z</time>
      </trkpt>
      <trkpt lat="43.50197" lon="6.515">
        <ele>196.28</ele>
        <time>2014-01-28T14:50:49Z</time>
      </trkpt>
      <trkpt lat="43.5019" lon="6.51477">
        <ele>193.54</ele>
        <time>2014-01-28T14:51:19Z</time>
      </trkpt>
      <trkpt lat="43.50175" lon="6.51462">
        <ele>190.45</ele>
        <time>2014-01-28T14:51:49Z</time>
      </trkpt>
      <trkpt lat="43.50157" lon="6.51451">
        <ele>187.77</ele>
        <time>2014-01-28T14:52:27Z</time>
      </trkpt>
      <trkpt lat="43.50157" lon="6.51451">
        <ele>187.77</ele>
        <time>2014-01-28T14:52:27Z</time>
      </trkpt>
      <trkpt lat="43.5014" lon="6.51441">
        <ele>184.27</ele>
        <time>2014-01-28T14:52:59Z</time>
      </trkpt>
      <trkpt lat="43.50124" lon="6.5143">
        <ele>180.77</ele>
        <time>2014-01-28T14:53:35Z</time>
      </trkpt>
      <trkpt lat="43.50125" lon="6.51442">
        <ele>177.71</ele>
        <time>2014-01-28T14:55:33Z</time>
      </trkpt>
      <trkpt lat="43.50125" lon="6.51442">
        <ele>177.71</ele>
        <time>2014-01-28T14:55:33Z</time>
      </trkpt>
      <trkpt lat="43.50125" lon="6.51442">
        <ele>177.31</ele>
        <time>2014-01-28T14:55:59Z</time>
      </trkpt>
      <trkpt lat="43.50117" lon="6.5142">
        <ele>175.33</ele>
        <time>2014-01-28T14:56:45Z</time>
      </trkpt>
      <trkpt lat="43.50111" lon="6.51396">
        <ele>173.23</ele>
        <time>2014-01-28T14:57:17Z</time>
      </trkpt>
      <trkpt lat="43.50111" lon="6.51396">
        <ele>173.23</ele>
        <time>2014-01-28T14:57:17Z</time>
      </trkpt>
      <trkpt lat="43.50114" lon="6.51388">
        <ele>169.01</ele>
        <time>2014-01-28T14:59:09Z</time>
      </trkpt>
      <trkpt lat="43.50113" lon="6.51378">
        <ele>168.46</ele>
        <time>2014-01-28T14:59:43Z</time>
      </trkpt>
      <trkpt lat="43.50114" lon="6.51377">
        <ele>166.42</ele>
        <time>2014-01-28T15:00:53Z</time>
      </trkpt>
      <trkpt lat="43.5013" lon="6.5139">
        <ele>164.82</ele>
        <time>2014-01-28T15:01:23Z</time>
      </trkpt>
      <trkpt lat="43.50148" lon="6.5138">
        <ele>164.95</ele>
        <time>2014-01-28T15:01:47Z</time>
      </trkpt>
      <trkpt lat="43.50148" lon="6.5138">
        <ele>164.95</ele>
        <time>2014-01-28T15:01:47Z</time>
      </trkpt>
      <trkpt lat="43.5016" lon="6.51359">
        <ele>161.95</ele>
        <time>2014-01-28T15:02:11Z</time>
      </trkpt>
      <trkpt lat="43.50174" lon="6.51344">
        <ele>160.03</ele>
        <time>2014-01-28T15:02:35Z</time>
      </trkpt>
      <trkpt lat="43.50189" lon="6.5133">
        <ele>159.42</ele>
        <time>2014-01-28T15:02:59Z</time>
      </trkpt>
      <trkpt lat="43.50206" lon="6.51319">
        <ele>159.29</ele>
        <time>2014-01-28T15:03:23Z</time>
      </trkpt>
      <trkpt lat="43.50221" lon="6.51302">
        <ele>158.32</ele>
        <time>2014-01-28T15:03:49Z</time>
      </trkpt>
      <trkpt lat="43.5023" lon="6.51281">
        <ele>156.1</ele>
        <time>2014-01-28T15:04:07Z</time>
      </trkpt>
      <trkpt lat="43.50211" lon="6.51279">
        <ele>152.41</ele>
        <time>2014-01-28T15:04:27Z</time>
      </trkpt>
      <trkpt lat="43.50211" lon="6.51279">
        <ele>152.41</ele>
        <time>2014-01-28T15:04:27Z</time>
      </trkpt>
      <trkpt lat="43.50193" lon="6.51285">
        <ele>149.32</ele>
        <time>2014-01-28T15:04:53Z</time>
      </trkpt>
      <trkpt lat="43.50175" lon="6.51283">
        <ele>146.57</ele>
        <time>2014-01-28T15:05:19Z</time>
      </trkpt>
      <trkpt lat="43.50157" lon="6.51289">
        <ele>143.47</ele>
        <time>2014-01-28T15:05:47Z</time>
      </trkpt>
      <trkpt lat="43.50147" lon="6.51291">
        <ele>141.87</ele>
        <time>2014-01-28T15:07:11Z</time>
      </trkpt>
      <trkpt lat="43.50147" lon="6.51291">
        <ele>141.87</ele>
        <time>2014-01-28T15:07:11Z</time>
      </trkpt>
      <trkpt lat="43.50149" lon="6.51294">
        <ele>141.26</ele>
        <time>2014-01-28T15:08:43Z</time>
      </trkpt>
      <trkpt lat="43.50149" lon="6.51295">
        <ele>141.13</ele>
        <time>2014-01-28T15:09:51Z</time>
      </trkpt>
    </trkseg>
  </trk>
</gpx>